Regional Weather Roundup
Issued by NWS Grand Forks, ND

Home | Current Version | Previous Version | Graphics & Text | Print | Product List | Glossary On
Versions: 1 2 3 4 5 6 7 8 9 10 11 12 13 14 15 16 17 18 19 20 21 22 23 24 25 26 27 28 29 30 31 32 33 34 35 36 37 38 39 40 41 42 43 44 45 46 47 48 49 50
000
ASUS43 KFGF 260410
RWRFGF
PRAIRIE TO PINES  WEATHER ROUNDUP
NATIONAL WEATHER SERVICE EASTERN NORTH DAKOTA/GRAND FORKS ND
1100 PM CDT FRI JUL 25 2014

 **SATELLITE DATA USED TO AUGMENT SKY COVER AT AUTOMATED STATIONS**
 *****  WEATHER ACROSS EASTERN NORTH DAKOTA  *****

CITY           SKY/WX    TMP DP  RH WIND       PRES   REMARKS
GRAND FORKS    CLEAR     62  58  86 SW5       29.77S
GRAND FRKS AFB CLEAR     61  61  99 SW6       29.79S
GRAND FRKS NWS   N/A     66 N/A N/A W3          N/A
DEVILS LAKE    CLEAR     66  55  68 S7        29.78S
FARGO          CLEAR     64  57  78 CALM      29.81R
WAHPETON ARPT  CLEAR     64  54  68 N7        29.83R
$$

 ***** WEATHER ACROSS CENTRAL AND WESTERN NORTH DAKOTA  *****

CITY           SKY/WX    TMP DP  RH WIND       PRES   REMARKS
BISMARCK       CLEAR     60  53  77 S7        29.80S
MINOT          CLEAR     67  56  67 CALM      29.77R
JAMESTOWN      CLEAR     64  56  75 CALM      29.82R
MINOT AFB      CLEAR     64  60  87 S9        29.76R
GARRISON         N/A     64  59  83 SE5       29.78R
WILLISTON      CLEAR     64  51  62 N21G26    29.82R
DICKINSON      CLEAR     65  53  65 W12       29.83R
HETTINGER      CLEAR     60  50  69 CALM      29.87R
$$

 *****  OTHER AIRPORT OBSERVATIONS IN OUR AREA  *****

CITY           SKY/WX    TMP DP  RH WIND       PRES   REMARKS
WALHALLA         N/A     64  59  82 SW3         N/A
GRAFTON AIRPOR FAIR      59  55  88 SW7       29.76S
VALLEY CITY AR FAIR      63  61  94 S3        29.83S
CANDO          FAIR      59  55  88 S8        29.79S
CAVALIER APRT  FAIR      66  55  68 SW8       29.75S
GWINNER          N/A     63  63 100 CALM      29.85R
ROLLA          FAIR      59  57  94 SW8       29.80R
 ***** THE ABOVE OBSERVATIONS ARE NON NWS ARE NOT QUALITY
       CONTROLLED AND MAY MIS-REPORT RAIN FOR SNOW...
$$

  *****  WEATHER ACROSS NORTHERN MINNESOTA  *****

CITY           SKY/WX    TMP DP  RH WIND       PRES   REMARKS
FLAG ISLAND    CLEAR     70  55  60 W8        29.71R
WARROAD        CLEAR     66  57  72 SW7       29.74S
ROSEAU         CLEAR     64  55  72 SW5       29.75S
HALLOCK        CLEAR     64  57  77 SW6       29.75S
THF RVR FALLS  CLEAR     64  57  77 W8        29.79S
BAUDETTE       CLEAR     66  56  70 CALM      29.75R
WASKISH        MOCLDY    72  61  68 W6        29.76R
CROOKSTON      CLEAR     63  57  82 W5        29.80R
$$
  *****  WEATHER ACROSS CENTRAL AND WEST MINNESOTA  *****

CITY           SKY/WX    TMP DP  RH WIND       PRES   REMARKS
FOSSTON        CLEAR     57  52  82 CALM      29.82R
BEMIDJI        MOCLDY    67  60  76 W8        29.80R
PARK RAPIDS    PTCLDY    69  67  93 W10       29.81R
ELBOW LAKE     FAIR      67  66  97 W5        29.83R
WADENA         CLEAR     66  64  94 W6        29.81R
DETROIT LAKES  CLEAR     66  57  72 NW6       29.84R
MOORHEAD       CLEAR     68  61  77 CALM      29.82R
FERGUS FALLS   CLEAR     68  57  68 N6        29.83R
MORRIS MN      CLEAR     66  66 100 W7        29.82R FOG
STAPLES        PTCLDY    66  64  94 W5        29.80R
$$
  *****  WEATHER ELSEWHERE ACROSS MINNESOTA  *****

CITY           SKY/WX    TMP DP  RH WIND       PRES   REMARKS
DULUTH         CLOUDY    69  65  86 S10       29.78F
INTRNTL FALLS  LGT RAIN  68  65  90 VRB5      29.72S
ELY            MOCLDY    66  63  88 SW6       29.78R
CLOQUET        CLOUDY    70  66  88 S8        29.79S
WHEATON        NOT AVBL
BRAINERD       PTCLDY    69  67  93 W3        29.80R
HIBBING        CLOUDY    68  65  90 SE3       29.77S
ALEXANDRIA     CLEAR     69  66  90 W5        29.84R
SAINT CLOUD    CLOUDY    75  71  87 CALM      29.79R
MINNEAPOLIS    CLOUDY    78  69  73 SW5       29.80R
$$

  *****  WEATHER ACROSS SOUTH DAKOTA  *****

CITY           SKY/WX    TMP DP  RH WIND       PRES   REMARKS
SIOUX FALLS    MOCLDY    75  70  84 N7        29.84R
BROOKINGS      NOT AVBL
WATERTOWN      CLEAR     67  66  97 CALM      29.87R FOG
HURON          CLEAR     67  65  93 NE5       29.82F
SISSETON         N/A     68  67  96 NW6       29.83R
ABERDEEN       CLEAR     60  58  92 CALM      29.85R
MITCHELL       PTCLDY    70  67  90 N5        29.83S
PIERRE         PTCLDY    72  59  63 E6        29.86R
MOBRIDGE         N/A     63  53  70 E6        29.83R
RAPID CITY     CLEAR     68  53  58 CALM      29.89S
$$

  *****  SOME WEATHER IN NEARBY STATES *****

CITY           SKY/WX    TMP DP  RH WIND       PRES   REMARKS
GLASGOW MT     CLEAR     61  48  62 NW7       29.86R
GREAT FALLS MT CLEAR     62  36  37 W12       30.00R
CHEYENNE WY    CLOUDY    71  53  52 S13G22    30.12S
SCOTTSBLUFF NE PTCLDY    69  62  78 E8        29.95R
OMAHA NE       MOCLDY    80  74  81 E6        29.78R
DES MOINES IA  PTCLDY    76  70  82 E8        29.79R
DAVENPORT IA   CLOUDY    69  62  78 SE13      29.88S
CHICAGO IL     MOCLDY    71  57  61 SW8       29.92F
EAU CLAIRE WI  CLOUDY    71  65  81 S13G20    29.82R
LA CROSSE WI   CLOUDY    71  64  78 SE9       29.84R
$$

  *****  SOME NATIONAL WEATHER *****

CITY           SKY/WX    TMP DP  RH WIND       PRES   REMARKS
LA GUARDIA NY  PTCLDY    74  61  63 S6        30.00S
RALEIGH NC     PTCLDY    71  66  84 CALM      30.05R
ATLANTA GA     PTCLDY    75  67  76 SW3       30.04R
NEW ORLEANS LA MOCLDY    81  75  82 SW7       30.03R
OKLAHOMA CITY  PTCLDY    83  62  49 S9        29.91R
ALBUQUERQUE NM PTCLDY    86  44  23 SE5       30.10R
SALT LAKE CITY PTCLDY    83  40  21 CALM      29.96R
LOS ANGELES CA PTCLDY    70  63  78 SW6       29.91R
BOISE ID       CLEAR     76  25  15 NW9       29.98R
SEATTLE WA     PTCLDY    66  51  58 N7        30.10S
$$

*** WEATHER ACROSS MANITOBA...SASKATCHEWAN AND ONTARIO ***
                ***ONTARIO***

CITY           SKY/WX    TMP DP  RH WIND       PRES   REMARKS
GERALDTON      MOCLDY    64  59  82 SW3       29.73F
THUNDER BAY    PTCLDY    57  57 100 E5        29.75S
SIOUX LOOKOUT  LGT RAIN  66  64  94 S3        29.71S
TORONTO        PTCLDY    64  54  68 W8        29.96S
BIG TROUT LK   PTCLDY    54  48  82 E9        29.81R
PICKLE LAKE    NOT AVBL
DRYDEN         MOCLDY    68  64  88 S9        29.70F
KENORA         MOCLDY    66  61  82 W7        29.73R
$$
                *** MANITOBA***

CITY           SKY/WX    TMP DP  RH WIND       PRES   REMARKS
BRANDON        PTCLDY    63  55  77 S7        29.73R
DAUPHIN        CLEAR     59  54  82 S7        29.67S
ISLAND LAKE    PTCLDY    64  54  68 E12G20    29.75R
PILOT MOUND      N/A     54  52  94 S5          N/A
THE PAS        LGT RAIN  63  59  88 SE8       29.66
THOMPSON       PTCLDY    61  54  77 NE15      29.81R
WINNIPEG       CLEAR     66  52  59 W8        29.72R
LYNN LAKE      CLEAR     64  50  59 E9        29.83R
CHURCHILL      CLOUDY    46  45  93 E12       30.02R
GILLAM         MOCLDY    50  48  93 NE12      29.90S
$$
                ***SASKATCHEWAN***

CITY           SKY/WX    TMP DP  RH WIND       PRES   REMARKS
ESTEVAN        MOCLDY    57  54  88 NW3       29.79R
KINDERSLEY     MOCLDY    55  48  76 W10       29.75R
LLOYDMINSTER   MOCLDY    55  54  94 W9        29.76R
PRINCE ALBERT  LGT RAIN  57  55  94 E8        29.60R
REGINA         MOCLDY    57  54  88 SW15      29.67R
YORKTON        CLOUDY    59  57  94 SE7       29.66F
N. BATTLEFORD  CLOUDY    57  54  88 N10       29.70R
LA RONGE       TSTM      61  59  94 NE10      29.71R
SASKATOON      LGT RAIN  57  55  94 N15       29.57R
SWIFT CURRENT  MOCLDY    55  52  88 W30G39    29.73R
$$
NOTE: THESE ARE AUTOMATED STATIONS WITH LIMITED QUALITY CONTROL
      "FAIR" INDICATES FEW OR NO CLOUDS BELOW 12,000 FEET WITH NO
      SIGNIFICANT WEATHER AND/OR OBSTRUCTIONS TO VISIBILITY.
      SKY/WX - SKY CONDITION AND SIGNIFICANT WEATHER.
      TMP - AIR TEMPERATURE.    DP   - DEWPOINT TEMPERATURE.
      RH  - RELATIVE HUMIDITY.  PRES - PRESSURE.
      HX  - HEAT INDEX.         WCI  - WIND CHILL INDEX.
$



USA.gov is the U.S. government's official web portal to all federal, state and local government web resources and services.